{"data":{"norad_id":65908,"epoch":"2026-05-25T00:27:03.463776Z","epoch_age_seconds":73318,"freshness":"FRESH","line1":"1 65908U 25224AC  26145.01879009  .00013619  00000+0  41345-3 0  9994","line2":"2 65908  53.1596  15.8775 0000917  99.2098 260.9008 15.34400822 36560","mean_motion":15.34400822,"eccentricity":9.17e-5,"inclination_deg":53.1596,"raan_deg":15.8775,"arg_perigee_deg":99.2098,"mean_anomaly_deg":260.9008,"bstar":0.00041345,"rev_number":3656,"period_min":93.847707805777,"perigee_km":462.07349222498,"apogee_km":463.32810187696,"semimajor_km":6840.837797051,"source":"CELESTRAK","updated_at":"2026-05-25T13:38:20.985087Z"}}